Location: Del Amo
(33.8464°N, 118.2104°W)
Time: 03:53:12
(UTC+00:00)

S-56A Canister/Altair - Pass Details

Date: 18 September 2024
Orbit: 636 x 2487 km, 38.9° (Epoch: 05 October)

Event Time Altitude Azimuth Distance (km) Brightness Sun altitude
Rises 02:08:33 0° 261° (W) 3,045 12.6 -3.5°
Reaches altitude 10° 02:10:39 10° 264° (W) 2,229 11.7 -4.0°
Maximum altitude 02:15:43 67° 348° (NNW) 965 8.2 -5.0°
Drops below altitude 10° 02:23:00 10° 70° (ENE) 3,154 10.1 -6.5°
Enters shadow 02:24:56 - 72° (ENE) 3,864 10.5 -6.9°
Sets 02:26:29 0° 73° (ENE) 4,428 - -7.2°
